Location: Franzen
(48.6167°N, 15.3833°E)
Time: 09:49:21
(UTC+00:00)

A-11 Canister half - Pass Details

Date: 29 July 2021
Orbit: 1515 x 1685 km, 47.2° (Epoch: 21 September)

Event Time Altitude Azimuth Distance (km) Brightness Sun altitude
Rises 00:36:47 0° 289° (WNW) 4,941 11.6 -19.6°
Reaches altitude 10° 00:41:08 10° 273° (W) 3,952 10.9 -19.3°
Enters shadow 00:47:09 19° 236° (WSW) 3,249 10.2 -18.9°
Maximum altitude 00:47:36 19° 233° (SW) 3,244 - -18.9°
Drops below altitude 10° 00:54:03 10° 192° (SSW) 3,910 - -18.4°
Sets 00:58:22 0° 176° (S) 4,871 - -18.1°
